User: anonymous   Login
Location: Cussy
(47.0410°N, 4.6412°E)
Time: 02:55:27
(UTC+00:00)
Language:

Orbcomm A4 (FM08) - Orbit

View from above orbital plane
View from above orbital plane
View from above satellite
View from above satellite

Ground track
Ground track

The orbit data is extracted from the following two-line orbital elements,

1 25112U 97084A   21165.74733567  .00000078  00000-0  70694-4 0  9991
2 25112  45.0148 143.4069 0006205  59.8940 300.2524 14.39266837230404
Epoch (UTC): 14 June 2021 17:56:09
Eccentricity: 0.0006205
inclination: 45.0148°
perigee height: 756 km
apogee height: 765 km
right ascension of ascending node: 143.4069°
argument of perigee: 59.8940°
revolutions per day: 14.39266837
mean anomaly at epoch: 300.2524°
orbit number at epoch: 23040

The dashed part of the orbit path shows where the satellite is in the earth's shadow,  

DLR